Location: Berg
(47.2344°N, 9.5296°E)
Time: 12:38:14
(UTC+00:00)

ISS - Pass Details

Date: 24 January 2021
Orbit: 417 x 422 km, 51.6° (Epoch: 07 March)

Event Time Altitude Azimuth Distance (km) Brightness Sun altitude
Rises 17:43:00 0° 258° (WSW) 2,368 2.0 -15.3°
Reaches altitude 10° 17:45:07 10° 263° (W) 1,506 0.4 -15.7°
Maximum altitude 17:48:27 55° 343° (NNW) 513 -3.4 -16.2°
Enters shadow 17:49:33 36° 42° (NE) 696 -3.1 -16.4°
